Hlavní strana
METAR-TAF:

METAR-TAF

Letiště :

Douglas Municipal Airport

Douglas, Georgie, Spojené státy americké

zeměpisná šířka: 31-28-36N, zeměpisná délka: 082-51-37W, výška: 78 m

Aktuální stav počasí

Zpráva byla vytvořena před 11 minutami, v 17:15 UTC
Severovýchodní vítr 4 kt
Teplota 12°C
Vlhkost vzduchu 94%
Tlak 1016 hPa
Viditelnost: 4.0 km
Zataženo ve výšce 400 ft
kouřmo

METAR: KDQH 151715Z AUTO 05004KT 2 1/2SM BR OVC004 12/11 A3001 RMK AO2 T01190113

Čas: 12:26 (17:26 UTC)


TAF: chybějící

Stav a předpovědi počasí z více než 4 000 letišť (zprávy METAR a TAF).

Červené a žluté tečky na mapě představují dostupné meteorologické stanice.

Když kurzor umístíte na tečku, zobrazí se název stanice.

Pak kliknutím zobrazíte stav a předpověď počasí.

Chcete-li změnit mapu, kliknutím na zelené tlačítko se znaménkem +mapu přiblížíte, kliknutím na zelené tlačítko se znaménkem – mapu oddálíte a kliknutím na zelené šipky přejdete na sousední mapy.


METAR-TAF: